Index of /20260430/WXO-DD/model_gdps/15km/00/057
Name Last modified Size Description
Parent Directory -
20260430T00Z_MSC_GDPS_AbsoluteVorticity_IsbL-0200_LatLon0.15_PT057H.grib2 2026-04-30 04:12 1.5M
20260430T00Z_MSC_GDPS_AbsoluteVorticity_IsbL-0250_LatLon0.15_PT057H.grib2 2026-04-30 04:12 1.6M
20260430T00Z_MSC_GDPS_AbsoluteVorticity_IsbL-0500_LatLon0.15_PT057H.grib2 2026-04-30 04:12 1.4M
20260430T00Z_MSC_GDPS_AbsoluteVorticity_IsbL-0700_LatLon0.15_PT057H.grib2 2026-04-30 04:12 1.3M
20260430T00Z_MSC_GDPS_AbsoluteVorticity_IsbL-0850_LatLon0.15_PT057H.grib2 2026-04-30 04:12 1.6M
20260430T00Z_MSC_GDPS_AirTemp_AGL-120m_LatLon0.15_PT057H.grib2 2026-04-30 04:12 907K
20260430T00Z_MSC_GDPS_AirTemp_AGL-2m_LatLon0.15_PT057H.grib2 2026-04-30 04:12 1.0M
20260430T00Z_MSC_GDPS_AirTemp_AGL-40m_LatLon0.15_PT057H.grib2 2026-04-30 04:12 810K
20260430T00Z_MSC_GDPS_AirTemp_AGL-80m_LatLon0.15_PT057H.grib2 2026-04-30 04:12 799K
20260430T00Z_MSC_GDPS_AirTemp_IsbL-0001_LatLon0.15_PT057H.grib2 2026-04-30 04:12 657K
20260430T00Z_MSC_GDPS_AirTemp_IsbL-0005_LatLon0.15_PT057H.grib2 2026-04-30 04:12 682K
20260430T00Z_MSC_GDPS_AirTemp_IsbL-0010_LatLon0.15_PT057H.grib2 2026-04-30 04:12 756K
20260430T00Z_MSC_GDPS_AirTemp_IsbL-0020_LatLon0.15_PT057H.grib2 2026-04-30 04:12 783K
20260430T00Z_MSC_GDPS_AirTemp_IsbL-0030_LatLon0.15_PT057H.grib2 2026-04-30 04:12 830K
20260430T00Z_MSC_GDPS_AirTemp_IsbL-0050_LatLon0.15_PT057H.grib2 2026-04-30 04:12 803K
20260430T00Z_MSC_GDPS_AirTemp_IsbL-0100_LatLon0.15_PT057H.grib2 2026-04-30 04:12 958K
20260430T00Z_MSC_GDPS_AirTemp_IsbL-0150_LatLon0.15_PT057H.grib2 2026-04-30 04:12 971K
20260430T00Z_MSC_GDPS_AirTemp_IsbL-0175_LatLon0.15_PT057H.grib2 2026-04-30 04:12 956K
20260430T00Z_MSC_GDPS_AirTemp_IsbL-0200_LatLon0.15_PT057H.grib2 2026-04-30 04:12 969K
20260430T00Z_MSC_GDPS_AirTemp_IsbL-0225_LatLon0.15_PT057H.grib2 2026-04-30 04:12 1.0M
20260430T00Z_MSC_GDPS_AirTemp_IsbL-0250_LatLon0.15_PT057H.grib2 2026-04-30 04:12 1.0M
20260430T00Z_MSC_GDPS_AirTemp_IsbL-0275_LatLon0.15_PT057H.grib2 2026-04-30 04:12 1.0M
20260430T00Z_MSC_GDPS_AirTemp_IsbL-0300_LatLon0.15_PT057H.grib2 2026-04-30 04:12 939K
20260430T00Z_MSC_GDPS_AirTemp_IsbL-0350_LatLon0.15_PT057H.grib2 2026-04-30 04:12 922K
20260430T00Z_MSC_GDPS_AirTemp_IsbL-0400_LatLon0.15_PT057H.grib2 2026-04-30 04:12 938K
20260430T00Z_MSC_GDPS_AirTemp_IsbL-0450_LatLon0.15_PT057H.grib2 2026-04-30 04:12 959K
20260430T00Z_MSC_GDPS_AirTemp_IsbL-0500_LatLon0.15_PT057H.grib2 2026-04-30 04:12 1.0M
20260430T00Z_MSC_GDPS_AirTemp_IsbL-0550_LatLon0.15_PT057H.grib2 2026-04-30 04:12 796K
20260430T00Z_MSC_GDPS_AirTemp_IsbL-0600_LatLon0.15_PT057H.grib2 2026-04-30 04:12 888K
20260430T00Z_MSC_GDPS_AirTemp_IsbL-0650_LatLon0.15_PT057H.grib2 2026-04-30 04:12 915K
20260430T00Z_MSC_GDPS_AirTemp_IsbL-0700_LatLon0.15_PT057H.grib2 2026-04-30 04:12 953K
20260430T00Z_MSC_GDPS_AirTemp_IsbL-0750_LatLon0.15_PT057H.grib2 2026-04-30 04:12 1.0M
20260430T00Z_MSC_GDPS_AirTemp_IsbL-0800_LatLon0.15_PT057H.grib2 2026-04-30 04:12 1.1M
20260430T00Z_MSC_GDPS_AirTemp_IsbL-0850_LatLon0.15_PT057H.grib2 2026-04-30 04:12 1.1M
20260430T00Z_MSC_GDPS_AirTemp_IsbL-0875_LatLon0.15_PT057H.grib2 2026-04-30 04:12 1.2M
20260430T00Z_MSC_GDPS_AirTemp_IsbL-0900_LatLon0.15_PT057H.grib2 2026-04-30 04:12 1.1M
20260430T00Z_MSC_GDPS_AirTemp_IsbL-0925_LatLon0.15_PT057H.grib2 2026-04-30 04:12 1.1M
20260430T00Z_MSC_GDPS_AirTemp_IsbL-0950_LatLon0.15_PT057H.grib2 2026-04-30 04:12 1.1M
20260430T00Z_MSC_GDPS_AirTemp_IsbL-0970_LatLon0.15_PT057H.grib2 2026-04-30 04:12 1.2M
20260430T00Z_MSC_GDPS_AirTemp_IsbL-0985_LatLon0.15_PT057H.grib2 2026-04-30 04:12 1.1M
20260430T00Z_MSC_GDPS_AirTemp_IsbL-1000_LatLon0.15_PT057H.grib2 2026-04-30 04:12 1.1M
20260430T00Z_MSC_GDPS_AirTemp_IsbL-1015_LatLon0.15_PT057H.grib2 2026-04-30 04:12 1.1M
20260430T00Z_MSC_GDPS_Albedo_Sfc_LatLon0.15_PT057H.grib2 2026-04-30 04:12 241K
20260430T00Z_MSC_GDPS_CAPE_Sfc_LatLon0.15_PT057H.grib2 2026-04-30 04:12 3.9M
20260430T00Z_MSC_GDPS_CIN_Sfc_LatLon0.15_PT057H.grib2 2026-04-30 04:12 3.0M
20260430T00Z_MSC_GDPS_CloudWater_EAtm_LatLon0.15_PT057H.grib2 2026-04-30 04:12 533K
20260430T00Z_MSC_GDPS_ConvectivePrecip-Accum_Sfc_LatLon0.15_PT057H.grib2 2026-04-30 04:12 3.0M
20260430T00Z_MSC_GDPS_DewPointDepression_AGL-2m_LatLon0.15_PT057H.grib2 2026-04-30 04:12 766K
20260430T00Z_MSC_GDPS_DewPointDepression_IsbL-0010_LatLon0.15_PT057H.grib2 2026-04-30 04:12 61K
20260430T00Z_MSC_GDPS_DewPointDepression_IsbL-0020_LatLon0.15_PT057H.grib2 2026-04-30 04:12 64K
20260430T00Z_MSC_GDPS_DewPointDepression_IsbL-0030_LatLon0.15_PT057H.grib2 2026-04-30 04:12 73K
20260430T00Z_MSC_GDPS_DewPointDepression_IsbL-0050_LatLon0.15_PT057H.grib2 2026-04-30 04:12 373K
20260430T00Z_MSC_GDPS_DewPointDepression_IsbL-0100_LatLon0.15_PT057H.grib2 2026-04-30 04:12 408K
20260430T00Z_MSC_GDPS_DewPointDepression_IsbL-0150_LatLon0.15_PT057H.grib2 2026-04-30 04:12 467K
20260430T00Z_MSC_GDPS_DewPointDepression_IsbL-0175_LatLon0.15_PT057H.grib2 2026-04-30 04:12 575K
20260430T00Z_MSC_GDPS_DewPointDepression_IsbL-0200_LatLon0.15_PT057H.grib2 2026-04-30 04:12 683K
20260430T00Z_MSC_GDPS_DewPointDepression_IsbL-0225_LatLon0.15_PT057H.grib2 2026-04-30 04:12 774K
20260430T00Z_MSC_GDPS_DewPointDepression_IsbL-0250_LatLon0.15_PT057H.grib2 2026-04-30 04:12 857K
20260430T00Z_MSC_GDPS_DewPointDepression_IsbL-0275_LatLon0.15_PT057H.grib2 2026-04-30 04:12 876K
20260430T00Z_MSC_GDPS_DewPointDepression_IsbL-0300_LatLon0.15_PT057H.grib2 2026-04-30 04:12 916K
20260430T00Z_MSC_GDPS_DewPointDepression_IsbL-0350_LatLon0.15_PT057H.grib2 2026-04-30 04:12 942K
20260430T00Z_MSC_GDPS_DewPointDepression_IsbL-0400_LatLon0.15_PT057H.grib2 2026-04-30 04:12 1.0M
20260430T00Z_MSC_GDPS_DewPointDepression_IsbL-0450_LatLon0.15_PT057H.grib2 2026-04-30 04:12 1.0M
20260430T00Z_MSC_GDPS_DewPointDepression_IsbL-0500_LatLon0.15_PT057H.grib2 2026-04-30 04:12 1.0M
20260430T00Z_MSC_GDPS_DewPointDepression_IsbL-0550_LatLon0.15_PT057H.grib2 2026-04-30 04:12 1.0M
20260430T00Z_MSC_GDPS_DewPointDepression_IsbL-0600_LatLon0.15_PT057H.grib2 2026-04-30 04:12 1.0M
20260430T00Z_MSC_GDPS_DewPointDepression_IsbL-0650_LatLon0.15_PT057H.grib2 2026-04-30 04:12 1.1M
20260430T00Z_MSC_GDPS_DewPointDepression_IsbL-0700_LatLon0.15_PT057H.grib2 2026-04-30 04:12 1.1M
20260430T00Z_MSC_GDPS_DewPointDepression_IsbL-0750_LatLon0.15_PT057H.grib2 2026-04-30 04:12 1.1M
20260430T00Z_MSC_GDPS_DewPointDepression_IsbL-0800_LatLon0.15_PT057H.grib2 2026-04-30 04:12 1.2M
20260430T00Z_MSC_GDPS_DewPointDepression_IsbL-0850_LatLon0.15_PT057H.grib2 2026-04-30 04:12 1.2M
20260430T00Z_MSC_GDPS_DewPointDepression_IsbL-0875_LatLon0.15_PT057H.grib2 2026-04-30 04:12 1.1M
20260430T00Z_MSC_GDPS_DewPointDepression_IsbL-0900_LatLon0.15_PT057H.grib2 2026-04-30 04:12 1.1M
20260430T00Z_MSC_GDPS_DewPointDepression_IsbL-0925_LatLon0.15_PT057H.grib2 2026-04-30 04:12 1.0M
20260430T00Z_MSC_GDPS_DewPointDepression_IsbL-0950_LatLon0.15_PT057H.grib2 2026-04-30 04:12 1.0M
20260430T00Z_MSC_GDPS_DewPointDepression_IsbL-0970_LatLon0.15_PT057H.grib2 2026-04-30 04:12 1.0M
20260430T00Z_MSC_GDPS_DewPointDepression_IsbL-0985_LatLon0.15_PT057H.grib2 2026-04-30 04:12 1.0M
20260430T00Z_MSC_GDPS_DewPointDepression_IsbL-1000_LatLon0.15_PT057H.grib2 2026-04-30 04:12 1.0M
20260430T00Z_MSC_GDPS_DewPointDepression_IsbL-1015_LatLon0.15_PT057H.grib2 2026-04-30 04:12 915K
20260430T00Z_MSC_GDPS_DewPoint_AGL-2m_LatLon0.15_PT057H.grib2 2026-04-30 04:12 611K
20260430T00Z_MSC_GDPS_DownwardLongwaveRadiationFlux-Accum_Sfc_LatLon0.15_PT057H.grib2 2026-04-30 04:12 859K
20260430T00Z_MSC_GDPS_DownwardShortwaveRadiationFlux-Accum_NTAtm_LatLon0.15_PT057H.grib2 2026-04-30 04:12 208K
20260430T00Z_MSC_GDPS_DownwardShortwaveRadiationFlux-Accum_Sfc_LatLon0.15_PT057H.grib2 2026-04-30 04:12 1.1M
20260430T00Z_MSC_GDPS_FreezingRain-Accum1h_Sfc_LatLon0.15_PT057H.grib2 2026-04-30 04:12 42K
20260430T00Z_MSC_GDPS_FreezingRain-Accum3h_Sfc_LatLon0.15_PT057H.grib2 2026-04-30 04:12 46K
20260430T00Z_MSC_GDPS_FreezingRain-Accum_Sfc_LatLon0.15_PT057H.grib2 2026-04-30 04:12 284K
20260430T00Z_MSC_GDPS_GeopotentialHeight_IsbL-0001_LatLon0.15_PT057H.grib2 2026-04-30 04:12 371K
20260430T00Z_MSC_GDPS_GeopotentialHeight_IsbL-0005_LatLon0.15_PT057H.grib2 2026-04-30 04:12 480K
20260430T00Z_MSC_GDPS_GeopotentialHeight_IsbL-0010_LatLon0.15_PT057H.grib2 2026-04-30 04:12 475K
20260430T00Z_MSC_GDPS_GeopotentialHeight_IsbL-0020_LatLon0.15_PT057H.grib2 2026-04-30 04:12 414K
20260430T00Z_MSC_GDPS_GeopotentialHeight_IsbL-0030_LatLon0.15_PT057H.grib2 2026-04-30 04:12 570K
20260430T00Z_MSC_GDPS_GeopotentialHeight_IsbL-0050_LatLon0.15_PT057H.grib2 2026-04-30 04:12 572K
20260430T00Z_MSC_GDPS_GeopotentialHeight_IsbL-0100_LatLon0.15_PT057H.grib2 2026-04-30 04:12 610K
20260430T00Z_MSC_GDPS_GeopotentialHeight_IsbL-0150_LatLon0.15_PT057H.grib2 2026-04-30 04:12 632K
20260430T00Z_MSC_GDPS_GeopotentialHeight_IsbL-0175_LatLon0.15_PT057H.grib2 2026-04-30 04:12 636K
20260430T00Z_MSC_GDPS_GeopotentialHeight_IsbL-0200_LatLon0.15_PT057H.grib2 2026-04-30 04:12 640K
20260430T00Z_MSC_GDPS_GeopotentialHeight_IsbL-0225_LatLon0.15_PT057H.grib2 2026-04-30 04:12 642K
20260430T00Z_MSC_GDPS_GeopotentialHeight_IsbL-0250_LatLon0.15_PT057H.grib2 2026-04-30 04:12 645K
20260430T00Z_MSC_GDPS_GeopotentialHeight_IsbL-0275_LatLon0.15_PT057H.grib2 2026-04-30 04:12 643K
20260430T00Z_MSC_GDPS_GeopotentialHeight_IsbL-0300_LatLon0.15_PT057H.grib2 2026-04-30 04:12 642K
20260430T00Z_MSC_GDPS_GeopotentialHeight_IsbL-0350_LatLon0.15_PT057H.grib2 2026-04-30 04:12 632K
20260430T00Z_MSC_GDPS_GeopotentialHeight_IsbL-0400_LatLon0.15_PT057H.grib2 2026-04-30 04:12 623K
20260430T00Z_MSC_GDPS_GeopotentialHeight_IsbL-0450_LatLon0.15_PT057H.grib2 2026-04-30 04:12 613K
20260430T00Z_MSC_GDPS_GeopotentialHeight_IsbL-0500_LatLon0.15_PT057H.grib2 2026-04-30 04:12 535K
20260430T00Z_MSC_GDPS_GeopotentialHeight_IsbL-0550_LatLon0.15_PT057H.grib2 2026-04-30 04:12 525K
20260430T00Z_MSC_GDPS_GeopotentialHeight_IsbL-0600_LatLon0.15_PT057H.grib2 2026-04-30 04:12 522K
20260430T00Z_MSC_GDPS_GeopotentialHeight_IsbL-0650_LatLon0.15_PT057H.grib2 2026-04-30 04:12 688K
20260430T00Z_MSC_GDPS_GeopotentialHeight_IsbL-0700_LatLon0.15_PT057H.grib2 2026-04-30 04:12 691K
20260430T00Z_MSC_GDPS_GeopotentialHeight_IsbL-0750_LatLon0.15_PT057H.grib2 2026-04-30 04:12 697K
20260430T00Z_MSC_GDPS_GeopotentialHeight_IsbL-0800_LatLon0.15_PT057H.grib2 2026-04-30 04:12 708K
20260430T00Z_MSC_GDPS_GeopotentialHeight_IsbL-0850_LatLon0.15_PT057H.grib2 2026-04-30 04:12 720K
20260430T00Z_MSC_GDPS_GeopotentialHeight_IsbL-0875_LatLon0.15_PT057H.grib2 2026-04-30 04:12 724K
20260430T00Z_MSC_GDPS_GeopotentialHeight_IsbL-0900_LatLon0.15_PT057H.grib2 2026-04-30 04:12 729K
20260430T00Z_MSC_GDPS_GeopotentialHeight_IsbL-0925_LatLon0.15_PT057H.grib2 2026-04-30 04:12 738K
20260430T00Z_MSC_GDPS_GeopotentialHeight_IsbL-0950_LatLon0.15_PT057H.grib2 2026-04-30 04:12 744K
20260430T00Z_MSC_GDPS_GeopotentialHeight_IsbL-0970_LatLon0.15_PT057H.grib2 2026-04-30 04:12 757K
20260430T00Z_MSC_GDPS_GeopotentialHeight_IsbL-0985_LatLon0.15_PT057H.grib2 2026-04-30 04:12 773K
20260430T00Z_MSC_GDPS_GeopotentialHeight_IsbL-1000_LatLon0.15_PT057H.grib2 2026-04-30 04:12 794K
20260430T00Z_MSC_GDPS_GeopotentialHeight_IsbL-1015_LatLon0.15_PT057H.grib2 2026-04-30 04:12 812K
20260430T00Z_MSC_GDPS_Humidex_Sfc_LatLon0.15_PT057H.grib2 2026-04-30 04:12 5.3M
20260430T00Z_MSC_GDPS_IcePellets-Accum1h_Sfc_LatLon0.15_PT057H.grib2 2026-04-30 04:12 6.8K
20260430T00Z_MSC_GDPS_IcePellets-Accum3h_Sfc_LatLon0.15_PT057H.grib2 2026-04-30 04:12 7.4K
20260430T00Z_MSC_GDPS_IcePellets-Accum_Sfc_LatLon0.15_PT057H.grib2 2026-04-30 04:12 62K
20260430T00Z_MSC_GDPS_KIndex_Sfc_LatLon0.15_PT057H.grib2 2026-04-30 04:12 6.0M
20260430T00Z_MSC_GDPS_LatentHeatNetFlux_Sfc_LatLon0.15_PT057H.grib2 2026-04-30 04:12 560K
20260430T00Z_MSC_GDPS_LiftedIndex-MU-VT_IsbL-0500_LatLon0.15_PT057H.grib2 2026-04-30 04:12 5.4M
20260430T00Z_MSC_GDPS_NetLongwaveRadiationFlux-Accum_Sfc_LatLon0.15_PT057H.grib2 2026-04-30 04:12 1.2M
20260430T00Z_MSC_GDPS_NetShortwaveRadiationFlux-Accum_Sfc_LatLon0.15_PT057H.grib2 2026-04-30 04:12 1.0M
20260430T00Z_MSC_GDPS_O3MixingRatio_Sfc_LatLon0.15_PT057H.grib2 2026-04-30 04:50 2.3M
20260430T00Z_MSC_GDPS_O3_EAtm_LatLon0.15_PT057H.grib2 2026-04-30 04:50 2.4M
20260430T00Z_MSC_GDPS_PlanetaryBoundaryLayerHeight_Sfc_LatLon0.15_PT057H.grib2 2026-04-30 04:12 2.5M
20260430T00Z_MSC_GDPS_Precip-Accum1h_Sfc_LatLon0.15_PT057H.grib2 2026-04-30 04:12 3.2M
20260430T00Z_MSC_GDPS_Precip-Accum3h_Sfc_LatLon0.15_PT057H.grib2 2026-04-30 04:12 3.5M
20260430T00Z_MSC_GDPS_Precip-Accum_Sfc_LatLon0.15_PT057H.grib2 2026-04-30 04:12 5.0M
20260430T00Z_MSC_GDPS_PrecipRate_Sfc_LatLon0.15_PT057H.grib2 2026-04-30 04:12 3.2M
20260430T00Z_MSC_GDPS_PrecipType-Instant_Sfc_LatLon0.15_PT057H.grib2 2026-04-30 04:12 1.6M
20260430T00Z_MSC_GDPS_Pressure_MSL_LatLon0.15_PT057H.grib2 2026-04-30 04:12 828K
20260430T00Z_MSC_GDPS_Pressure_PVU-1.5_LatLon0.15_PT057H.grib2 2026-04-30 04:12 5.8M
20260430T00Z_MSC_GDPS_Pressure_PVU-1_LatLon0.15_PT057H.grib2 2026-04-30 04:12 6.0M
20260430T00Z_MSC_GDPS_Pressure_PVU-2_LatLon0.15_PT057H.grib2 2026-04-30 04:12 5.6M
20260430T00Z_MSC_GDPS_Pressure_Sfc_LatLon0.15_PT057H.grib2 2026-04-30 04:12 1.1M
20260430T00Z_MSC_GDPS_RadiativeTemp_Sfc_LatLon0.15_PT057H.grib2 2026-04-30 04:12 503K
20260430T00Z_MSC_GDPS_Rain-Accum1h_Sfc_LatLon0.15_PT057H.grib2 2026-04-30 04:12 1.7M
20260430T00Z_MSC_GDPS_Rain-Accum3h_Sfc_LatLon0.15_PT057H.grib2 2026-04-30 04:12 1.9M
20260430T00Z_MSC_GDPS_Rain-Accum_Sfc_LatLon0.15_PT057H.grib2 2026-04-30 04:12 3.8M
20260430T00Z_MSC_GDPS_RelativeHumidity_AGL-2m_LatLon0.15_PT057H.grib2 2026-04-30 04:12 1.0M
20260430T00Z_MSC_GDPS_RelativeHumidity_IsbL-0010_LatLon0.15_PT057H.grib2 2026-04-30 04:12 198K
20260430T00Z_MSC_GDPS_RelativeHumidity_IsbL-0020_LatLon0.15_PT057H.grib2 2026-04-30 04:12 167K
20260430T00Z_MSC_GDPS_RelativeHumidity_IsbL-0030_LatLon0.15_PT057H.grib2 2026-04-30 04:12 267K
20260430T00Z_MSC_GDPS_RelativeHumidity_IsbL-0050_LatLon0.15_PT057H.grib2 2026-04-30 04:12 416K
20260430T00Z_MSC_GDPS_RelativeHumidity_IsbL-0100_LatLon0.15_PT057H.grib2 2026-04-30 04:12 507K
20260430T00Z_MSC_GDPS_RelativeHumidity_IsbL-0150_LatLon0.15_PT057H.grib2 2026-04-30 04:12 660K
20260430T00Z_MSC_GDPS_RelativeHumidity_IsbL-0175_LatLon0.15_PT057H.grib2 2026-04-30 04:12 778K
20260430T00Z_MSC_GDPS_RelativeHumidity_IsbL-0200_LatLon0.15_PT057H.grib2 2026-04-30 04:12 696K
20260430T00Z_MSC_GDPS_RelativeHumidity_IsbL-0225_LatLon0.15_PT057H.grib2 2026-04-30 04:12 785K
20260430T00Z_MSC_GDPS_RelativeHumidity_IsbL-0250_LatLon0.15_PT057H.grib2 2026-04-30 04:12 860K
20260430T00Z_MSC_GDPS_RelativeHumidity_IsbL-0275_LatLon0.15_PT057H.grib2 2026-04-30 04:12 880K
20260430T00Z_MSC_GDPS_RelativeHumidity_IsbL-0300_LatLon0.15_PT057H.grib2 2026-04-30 04:12 925K
20260430T00Z_MSC_GDPS_RelativeHumidity_IsbL-0350_LatLon0.15_PT057H.grib2 2026-04-30 04:12 944K
20260430T00Z_MSC_GDPS_RelativeHumidity_IsbL-0400_LatLon0.15_PT057H.grib2 2026-04-30 04:12 967K
20260430T00Z_MSC_GDPS_RelativeHumidity_IsbL-0450_LatLon0.15_PT057H.grib2 2026-04-30 04:12 1.0M
20260430T00Z_MSC_GDPS_RelativeHumidity_IsbL-0500_LatLon0.15_PT057H.grib2 2026-04-30 04:12 1.0M
20260430T00Z_MSC_GDPS_RelativeHumidity_IsbL-0550_LatLon0.15_PT057H.grib2 2026-04-30 04:12 1.0M
20260430T00Z_MSC_GDPS_RelativeHumidity_IsbL-0600_LatLon0.15_PT057H.grib2 2026-04-30 04:12 1.1M
20260430T00Z_MSC_GDPS_RelativeHumidity_IsbL-0650_LatLon0.15_PT057H.grib2 2026-04-30 04:12 1.1M
20260430T00Z_MSC_GDPS_RelativeHumidity_IsbL-0700_LatLon0.15_PT057H.grib2 2026-04-30 04:12 1.1M
20260430T00Z_MSC_GDPS_RelativeHumidity_IsbL-0750_LatLon0.15_PT057H.grib2 2026-04-30 04:12 1.2M
20260430T00Z_MSC_GDPS_RelativeHumidity_IsbL-0800_LatLon0.15_PT057H.grib2 2026-04-30 04:12 1.3M
20260430T00Z_MSC_GDPS_RelativeHumidity_IsbL-0850_LatLon0.15_PT057H.grib2 2026-04-30 04:12 1.3M
20260430T00Z_MSC_GDPS_RelativeHumidity_IsbL-0875_LatLon0.15_PT057H.grib2 2026-04-30 04:12 1.3M
20260430T00Z_MSC_GDPS_RelativeHumidity_IsbL-0900_LatLon0.15_PT057H.grib2 2026-04-30 04:12 1.3M
20260430T00Z_MSC_GDPS_RelativeHumidity_IsbL-0925_LatLon0.15_PT057H.grib2 2026-04-30 04:12 1.2M
20260430T00Z_MSC_GDPS_RelativeHumidity_IsbL-0950_LatLon0.15_PT057H.grib2 2026-04-30 04:12 1.2M
20260430T00Z_MSC_GDPS_RelativeHumidity_IsbL-0970_LatLon0.15_PT057H.grib2 2026-04-30 04:12 1.2M
20260430T00Z_MSC_GDPS_RelativeHumidity_IsbL-0985_LatLon0.15_PT057H.grib2 2026-04-30 04:12 1.1M
20260430T00Z_MSC_GDPS_RelativeHumidity_IsbL-1000_LatLon0.15_PT057H.grib2 2026-04-30 04:12 1.1M
20260430T00Z_MSC_GDPS_RelativeHumidity_IsbL-1015_LatLon0.15_PT057H.grib2 2026-04-30 04:12 1.0M
20260430T00Z_MSC_GDPS_RelativeVorticity_IsbL-0200_LatLon0.15_PT057H.grib2 2026-04-30 04:12 1.5M
20260430T00Z_MSC_GDPS_RelativeVorticity_IsbL-0250_LatLon0.15_PT057H.grib2 2026-04-30 04:12 1.6M
20260430T00Z_MSC_GDPS_RelativeVorticity_IsbL-0500_LatLon0.15_PT057H.grib2 2026-04-30 04:12 1.4M
20260430T00Z_MSC_GDPS_RelativeVorticity_IsbL-0700_LatLon0.15_PT057H.grib2 2026-04-30 04:12 1.3M
20260430T00Z_MSC_GDPS_RelativeVorticity_IsbL-0850_LatLon0.15_PT057H.grib2 2026-04-30 04:12 1.6M
20260430T00Z_MSC_GDPS_Runoff-Accum_Sfc_LatLon0.15_PT057H.grib2 2026-04-30 04:12 136K
20260430T00Z_MSC_GDPS_SensibleHeatNetFlux_Sfc_LatLon0.15_PT057H.grib2 2026-04-30 04:12 669K
20260430T00Z_MSC_GDPS_ShowalterIndex_IsbL-0500_LatLon0.15_PT057H.grib2 2026-04-30 04:12 6.2M
20260430T00Z_MSC_GDPS_Snow-Accum1h_Sfc_LatLon0.15_PT057H.grib2 2026-04-30 04:12 886K
20260430T00Z_MSC_GDPS_Snow-Accum3h_Sfc_LatLon0.15_PT057H.grib2 2026-04-30 04:12 921K
20260430T00Z_MSC_GDPS_Snow-Accum_Sfc_LatLon0.15_PT057H.grib2 2026-04-30 04:12 2.0M
20260430T00Z_MSC_GDPS_SnowDensity_Sfc_LatLon0.15_PT057H.grib2 2026-04-30 04:12 265K
20260430T00Z_MSC_GDPS_SnowDepth_Sfc_LatLon0.15_PT057H.grib2 2026-04-30 04:12 1.7M
20260430T00Z_MSC_GDPS_SoilTemp_DBS-0to10cm_LatLon0.15_PT057H.grib2 2026-04-30 04:12 506K
20260430T00Z_MSC_GDPS_SoilTemp_Sfc_LatLon0.15_PT057H.grib2 2026-04-30 04:12 591K
20260430T00Z_MSC_GDPS_SoilVolumetricIceContent_Sfc_LatLon0.15_PT057H.grib2 2026-04-30 04:12 202K
20260430T00Z_MSC_GDPS_SoilVolumetricWaterContent_DBS-0to10cm_LatLon0.15_PT057H.grib2 2026-04-30 04:12 586K
20260430T00Z_MSC_GDPS_SoilVolumetricWaterContent_DBS-0to1cm_LatLon0.15_PT057H.grib2 2026-04-30 04:12 652K
20260430T00Z_MSC_GDPS_SpecificHumidity_AGL-120m_LatLon0.15_PT057H.grib2 2026-04-30 04:12 1.1M
20260430T00Z_MSC_GDPS_SpecificHumidity_AGL-2m_LatLon0.15_PT057H.grib2 2026-04-30 04:12 1.2M
20260430T00Z_MSC_GDPS_SpecificHumidity_AGL-40m_LatLon0.15_PT057H.grib2 2026-04-30 04:12 1.1M
20260430T00Z_MSC_GDPS_SpecificHumidity_AGL-80m_LatLon0.15_PT057H.grib2 2026-04-30 04:12 1.1M
20260430T00Z_MSC_GDPS_SpecificHumidity_IsbL-0001_LatLon0.15_PT057H.grib2 2026-04-30 04:12 1.3M
20260430T00Z_MSC_GDPS_SpecificHumidity_IsbL-0005_LatLon0.15_PT057H.grib2 2026-04-30 04:12 1.2M
20260430T00Z_MSC_GDPS_SpecificHumidity_IsbL-0010_LatLon0.15_PT057H.grib2 2026-04-30 04:12 1.3M
20260430T00Z_MSC_GDPS_SpecificHumidity_IsbL-0020_LatLon0.15_PT057H.grib2 2026-04-30 04:12 1.4M
20260430T00Z_MSC_GDPS_SpecificHumidity_IsbL-0030_LatLon0.15_PT057H.grib2 2026-04-30 04:12 1.3M
20260430T00Z_MSC_GDPS_SpecificHumidity_IsbL-0050_LatLon0.15_PT057H.grib2 2026-04-30 04:12 1.3M
20260430T00Z_MSC_GDPS_SpecificHumidity_IsbL-0100_LatLon0.15_PT057H.grib2 2026-04-30 04:12 1.4M
20260430T00Z_MSC_GDPS_SpecificHumidity_IsbL-0150_LatLon0.15_PT057H.grib2 2026-04-30 04:12 1.3M
20260430T00Z_MSC_GDPS_SpecificHumidity_IsbL-0175_LatLon0.15_PT057H.grib2 2026-04-30 04:12 1.2M
20260430T00Z_MSC_GDPS_SpecificHumidity_IsbL-0200_LatLon0.15_PT057H.grib2 2026-04-30 04:12 1.3M
20260430T00Z_MSC_GDPS_SpecificHumidity_IsbL-0225_LatLon0.15_PT057H.grib2 2026-04-30 04:12 1.3M
20260430T00Z_MSC_GDPS_SpecificHumidity_IsbL-0250_LatLon0.15_PT057H.grib2 2026-04-30 04:12 1.4M
20260430T00Z_MSC_GDPS_SpecificHumidity_IsbL-0275_LatLon0.15_PT057H.grib2 2026-04-30 04:12 1.3M
20260430T00Z_MSC_GDPS_SpecificHumidity_IsbL-0300_LatLon0.15_PT057H.grib2 2026-04-30 04:12 1.2M
20260430T00Z_MSC_GDPS_SpecificHumidity_IsbL-0350_LatLon0.15_PT057H.grib2 2026-04-30 04:12 1.2M
20260430T00Z_MSC_GDPS_SpecificHumidity_IsbL-0400_LatLon0.15_PT057H.grib2 2026-04-30 04:12 1.4M
20260430T00Z_MSC_GDPS_SpecificHumidity_IsbL-0450_LatLon0.15_PT057H.grib2 2026-04-30 04:12 1.6M
20260430T00Z_MSC_GDPS_SpecificHumidity_IsbL-0500_LatLon0.15_PT057H.grib2 2026-04-30 04:12 1.4M
20260430T00Z_MSC_GDPS_SpecificHumidity_IsbL-0550_LatLon0.15_PT057H.grib2 2026-04-30 04:12 1.6M
20260430T00Z_MSC_GDPS_SpecificHumidity_IsbL-0600_LatLon0.15_PT057H.grib2 2026-04-30 04:12 1.7M
20260430T00Z_MSC_GDPS_SpecificHumidity_IsbL-0650_LatLon0.15_PT057H.grib2 2026-04-30 04:12 1.5M
20260430T00Z_MSC_GDPS_SpecificHumidity_IsbL-0700_LatLon0.15_PT057H.grib2 2026-04-30 04:12 1.6M
20260430T00Z_MSC_GDPS_SpecificHumidity_IsbL-0750_LatLon0.15_PT057H.grib2 2026-04-30 04:12 1.7M
20260430T00Z_MSC_GDPS_SpecificHumidity_IsbL-0800_LatLon0.15_PT057H.grib2 2026-04-30 04:12 1.9M
20260430T00Z_MSC_GDPS_SpecificHumidity_IsbL-0850_LatLon0.15_PT057H.grib2 2026-04-30 04:12 1.9M
20260430T00Z_MSC_GDPS_SpecificHumidity_IsbL-0875_LatLon0.15_PT057H.grib2 2026-04-30 04:12 1.9M
20260430T00Z_MSC_GDPS_SpecificHumidity_IsbL-0900_LatLon0.15_PT057H.grib2 2026-04-30 04:12 1.9M
20260430T00Z_MSC_GDPS_SpecificHumidity_IsbL-0925_LatLon0.15_PT057H.grib2 2026-04-30 04:12 1.6M
20260430T00Z_MSC_GDPS_SpecificHumidity_IsbL-0950_LatLon0.15_PT057H.grib2 2026-04-30 04:12 1.6M
20260430T00Z_MSC_GDPS_SpecificHumidity_IsbL-0970_LatLon0.15_PT057H.grib2 2026-04-30 04:12 1.5M
20260430T00Z_MSC_GDPS_SpecificHumidity_IsbL-0985_LatLon0.15_PT057H.grib2 2026-04-30 04:12 1.5M
20260430T00Z_MSC_GDPS_SpecificHumidity_IsbL-1000_LatLon0.15_PT057H.grib2 2026-04-30 04:12 1.5M
20260430T00Z_MSC_GDPS_SpecificHumidity_IsbL-1015_LatLon0.15_PT057H.grib2 2026-04-30 04:12 1.5M
20260430T00Z_MSC_GDPS_SpecificHumidity_Sfc_LatLon0.15_PT057H.grib2 2026-04-30 04:12 678K
20260430T00Z_MSC_GDPS_Thickness_IsbL-0850to0700_LatLon0.15_PT057H.grib2 2026-04-30 04:12 466K
20260430T00Z_MSC_GDPS_Thickness_IsbL-1000to0500_LatLon0.15_PT057H.grib2 2026-04-30 04:12 374K
20260430T00Z_MSC_GDPS_Thickness_IsbL-1000to0850_LatLon0.15_PT057H.grib2 2026-04-30 04:12 492K
20260430T00Z_MSC_GDPS_TotalCloudCover_Sfc_LatLon0.15_PT057H.grib2 2026-04-30 04:12 831K
20260430T00Z_MSC_GDPS_TotalTotalsIndex_Sfc_LatLon0.15_PT057H.grib2 2026-04-30 04:12 6.1M
20260430T00Z_MSC_GDPS_UVIndex-ClearSky_Sfc_LatLon0.15_PT057H.grib2 2026-04-30 04:50 1.1M
20260430T00Z_MSC_GDPS_UVIndex_Sfc_LatLon0.15_PT057H.grib2 2026-04-30 04:50 1.5M
20260430T00Z_MSC_GDPS_UpwardLongwaveRadiationFlux_NTAtm_LatLon0.15_PT057H.grib2 2026-04-30 04:12 840K
20260430T00Z_MSC_GDPS_VerticalVelocity_IsbL-0200_LatLon0.15_PT057H.grib2 2026-04-30 04:12 1.2M
20260430T00Z_MSC_GDPS_VerticalVelocity_IsbL-0250_LatLon0.15_PT057H.grib2 2026-04-30 04:12 1.0M
20260430T00Z_MSC_GDPS_VerticalVelocity_IsbL-0500_LatLon0.15_PT057H.grib2 2026-04-30 04:12 1.0M
20260430T00Z_MSC_GDPS_VerticalVelocity_IsbL-0600_LatLon0.15_PT057H.grib2 2026-04-30 04:12 1.1M
20260430T00Z_MSC_GDPS_VerticalVelocity_IsbL-0700_LatLon0.15_PT057H.grib2 2026-04-30 04:12 1.1M
20260430T00Z_MSC_GDPS_VerticalVelocity_IsbL-0850_LatLon0.15_PT057H.grib2 2026-04-30 04:12 1.0M
20260430T00Z_MSC_GDPS_WindChill_Sfc_LatLon0.15_PT057H.grib2 2026-04-30 04:12 5.3M
20260430T00Z_MSC_GDPS_WindDir_AGL-10m_LatLon0.15_PT057H.grib2 2026-04-30 04:12 1.3M
20260430T00Z_MSC_GDPS_WindDir_AGL-120m_LatLon0.15_PT057H.grib2 2026-04-30 04:12 1.3M
20260430T00Z_MSC_GDPS_WindDir_AGL-40m_LatLon0.15_PT057H.grib2 2026-04-30 04:12 1.4M
20260430T00Z_MSC_GDPS_WindDir_AGL-80m_LatLon0.15_PT057H.grib2 2026-04-30 04:12 1.4M
20260430T00Z_MSC_GDPS_WindDir_IsbL-0001_LatLon0.15_PT057H.grib2 2026-04-30 04:12 680K
20260430T00Z_MSC_GDPS_WindDir_IsbL-0005_LatLon0.15_PT057H.grib2 2026-04-30 04:12 797K
20260430T00Z_MSC_GDPS_WindDir_IsbL-0010_LatLon0.15_PT057H.grib2 2026-04-30 04:12 855K
20260430T00Z_MSC_GDPS_WindDir_IsbL-0020_LatLon0.15_PT057H.grib2 2026-04-30 04:12 961K
20260430T00Z_MSC_GDPS_WindDir_IsbL-0030_LatLon0.15_PT057H.grib2 2026-04-30 04:12 924K
20260430T00Z_MSC_GDPS_WindDir_IsbL-0050_LatLon0.15_PT057H.grib2 2026-04-30 04:12 952K
20260430T00Z_MSC_GDPS_WindDir_IsbL-0100_LatLon0.15_PT057H.grib2 2026-04-30 04:12 1.0M
20260430T00Z_MSC_GDPS_WindDir_IsbL-0150_LatLon0.15_PT057H.grib2 2026-04-30 04:12 1.0M
20260430T00Z_MSC_GDPS_WindDir_IsbL-0175_LatLon0.15_PT057H.grib2 2026-04-30 04:12 1.0M
20260430T00Z_MSC_GDPS_WindDir_IsbL-0200_LatLon0.15_PT057H.grib2 2026-04-30 04:12 1.1M
20260430T00Z_MSC_GDPS_WindDir_IsbL-0225_LatLon0.15_PT057H.grib2 2026-04-30 04:12 1.1M
20260430T00Z_MSC_GDPS_WindDir_IsbL-0250_LatLon0.15_PT057H.grib2 2026-04-30 04:12 1.1M
20260430T00Z_MSC_GDPS_WindDir_IsbL-0275_LatLon0.15_PT057H.grib2 2026-04-30 04:12 1.2M
20260430T00Z_MSC_GDPS_WindDir_IsbL-0300_LatLon0.15_PT057H.grib2 2026-04-30 04:12 1.2M
20260430T00Z_MSC_GDPS_WindDir_IsbL-0350_LatLon0.15_PT057H.grib2 2026-04-30 04:12 1.2M
20260430T00Z_MSC_GDPS_WindDir_IsbL-0400_LatLon0.15_PT057H.grib2 2026-04-30 04:12 1.3M
20260430T00Z_MSC_GDPS_WindDir_IsbL-0450_LatLon0.15_PT057H.grib2 2026-04-30 04:12 1.3M
20260430T00Z_MSC_GDPS_WindDir_IsbL-0500_LatLon0.15_PT057H.grib2 2026-04-30 04:12 1.3M
20260430T00Z_MSC_GDPS_WindDir_IsbL-0550_LatLon0.15_PT057H.grib2 2026-04-30 04:12 1.4M
20260430T00Z_MSC_GDPS_WindDir_IsbL-0600_LatLon0.15_PT057H.grib2 2026-04-30 04:12 1.4M
20260430T00Z_MSC_GDPS_WindDir_IsbL-0650_LatLon0.15_PT057H.grib2 2026-04-30 04:12 1.5M
20260430T00Z_MSC_GDPS_WindDir_IsbL-0700_LatLon0.15_PT057H.grib2 2026-04-30 04:12 1.6M
20260430T00Z_MSC_GDPS_WindDir_IsbL-0750_LatLon0.15_PT057H.grib2 2026-04-30 04:12 1.7M
20260430T00Z_MSC_GDPS_WindDir_IsbL-0800_LatLon0.15_PT057H.grib2 2026-04-30 04:12 1.8M
20260430T00Z_MSC_GDPS_WindDir_IsbL-0850_LatLon0.15_PT057H.grib2 2026-04-30 04:12 1.9M
20260430T00Z_MSC_GDPS_WindDir_IsbL-0875_LatLon0.15_PT057H.grib2 2026-04-30 04:12 1.9M
20260430T00Z_MSC_GDPS_WindDir_IsbL-0900_LatLon0.15_PT057H.grib2 2026-04-30 04:12 1.9M
20260430T00Z_MSC_GDPS_WindDir_IsbL-0925_LatLon0.15_PT057H.grib2 2026-04-30 04:12 2.0M
20260430T00Z_MSC_GDPS_WindDir_IsbL-0950_LatLon0.15_PT057H.grib2 2026-04-30 04:12 1.9M
20260430T00Z_MSC_GDPS_WindDir_IsbL-0970_LatLon0.15_PT057H.grib2 2026-04-30 04:12 2.0M
20260430T00Z_MSC_GDPS_WindDir_IsbL-0985_LatLon0.15_PT057H.grib2 2026-04-30 04:12 2.0M
20260430T00Z_MSC_GDPS_WindDir_IsbL-1000_LatLon0.15_PT057H.grib2 2026-04-30 04:12 2.0M
20260430T00Z_MSC_GDPS_WindDir_IsbL-1015_LatLon0.15_PT057H.grib2 2026-04-30 04:12 2.0M
20260430T00Z_MSC_GDPS_WindGust-Max_AGL-10m_LatLon0.15_PT057H.grib2 2026-04-30 04:12 2.2M
20260430T00Z_MSC_GDPS_WindGust-Min_AGL-10m_LatLon0.15_PT057H.grib2 2026-04-30 04:12 2.1M
20260430T00Z_MSC_GDPS_WindGust_AGL-10m_LatLon0.15_PT057H.grib2 2026-04-30 04:12 2.1M
20260430T00Z_MSC_GDPS_WindSpeed_AGL-10m_LatLon0.15_PT057H.grib2 2026-04-30 04:12 1.1M
20260430T00Z_MSC_GDPS_WindSpeed_AGL-120m_LatLon0.15_PT057H.grib2 2026-04-30 04:12 1.2M
20260430T00Z_MSC_GDPS_WindSpeed_AGL-40m_LatLon0.15_PT057H.grib2 2026-04-30 04:12 1.2M
20260430T00Z_MSC_GDPS_WindSpeed_AGL-80m_LatLon0.15_PT057H.grib2 2026-04-30 04:12 1.2M
20260430T00Z_MSC_GDPS_WindSpeed_IsbL-0001_LatLon0.15_PT057H.grib2 2026-04-30 04:12 640K
20260430T00Z_MSC_GDPS_WindSpeed_IsbL-0005_LatLon0.15_PT057H.grib2 2026-04-30 04:12 691K
20260430T00Z_MSC_GDPS_WindSpeed_IsbL-0010_LatLon0.15_PT057H.grib2 2026-04-30 04:12 627K
20260430T00Z_MSC_GDPS_WindSpeed_IsbL-0020_LatLon0.15_PT057H.grib2 2026-04-30 04:12 858K
20260430T00Z_MSC_GDPS_WindSpeed_IsbL-0030_LatLon0.15_PT057H.grib2 2026-04-30 04:12 860K
20260430T00Z_MSC_GDPS_WindSpeed_IsbL-0050_LatLon0.15_PT057H.grib2 2026-04-30 04:12 900K
20260430T00Z_MSC_GDPS_WindSpeed_IsbL-0100_LatLon0.15_PT057H.grib2 2026-04-30 04:12 1.1M
20260430T00Z_MSC_GDPS_WindSpeed_IsbL-0150_LatLon0.15_PT057H.grib2 2026-04-30 04:12 1.0M
20260430T00Z_MSC_GDPS_WindSpeed_IsbL-0175_LatLon0.15_PT057H.grib2 2026-04-30 04:12 1.0M
20260430T00Z_MSC_GDPS_WindSpeed_IsbL-0200_LatLon0.15_PT057H.grib2 2026-04-30 04:12 1.1M
20260430T00Z_MSC_GDPS_WindSpeed_IsbL-0225_LatLon0.15_PT057H.grib2 2026-04-30 04:12 1.1M
20260430T00Z_MSC_GDPS_WindSpeed_IsbL-0250_LatLon0.15_PT057H.grib2 2026-04-30 04:12 1.1M
20260430T00Z_MSC_GDPS_WindSpeed_IsbL-0275_LatLon0.15_PT057H.grib2 2026-04-30 04:12 1.1M
20260430T00Z_MSC_GDPS_WindSpeed_IsbL-0300_LatLon0.15_PT057H.grib2 2026-04-30 04:12 1.1M
20260430T00Z_MSC_GDPS_WindSpeed_IsbL-0350_LatLon0.15_PT057H.grib2 2026-04-30 04:12 1.1M
20260430T00Z_MSC_GDPS_WindSpeed_IsbL-0400_LatLon0.15_PT057H.grib2 2026-04-30 04:12 1.1M
20260430T00Z_MSC_GDPS_WindSpeed_IsbL-0450_LatLon0.15_PT057H.grib2 2026-04-30 04:12 1.1M
20260430T00Z_MSC_GDPS_WindSpeed_IsbL-0500_LatLon0.15_PT057H.grib2 2026-04-30 04:12 1.1M
20260430T00Z_MSC_GDPS_WindSpeed_IsbL-0550_LatLon0.15_PT057H.grib2 2026-04-30 04:12 1.1M
20260430T00Z_MSC_GDPS_WindSpeed_IsbL-0600_LatLon0.15_PT057H.grib2 2026-04-30 04:12 1.4M
20260430T00Z_MSC_GDPS_WindSpeed_IsbL-0650_LatLon0.15_PT057H.grib2 2026-04-30 04:12 1.4M
20260430T00Z_MSC_GDPS_WindSpeed_IsbL-0700_LatLon0.15_PT057H.grib2 2026-04-30 04:12 1.5M
20260430T00Z_MSC_GDPS_WindSpeed_IsbL-0750_LatLon0.15_PT057H.grib2 2026-04-30 04:12 1.6M
20260430T00Z_MSC_GDPS_WindSpeed_IsbL-0800_LatLon0.15_PT057H.grib2 2026-04-30 04:12 1.7M
20260430T00Z_MSC_GDPS_WindSpeed_IsbL-0850_LatLon0.15_PT057H.grib2 2026-04-30 04:12 1.7M
20260430T00Z_MSC_GDPS_WindSpeed_IsbL-0875_LatLon0.15_PT057H.grib2 2026-04-30 04:12 1.8M
20260430T00Z_MSC_GDPS_WindSpeed_IsbL-0900_LatLon0.15_PT057H.grib2 2026-04-30 04:12 1.8M
20260430T00Z_MSC_GDPS_WindSpeed_IsbL-0925_LatLon0.15_PT057H.grib2 2026-04-30 04:12 1.8M
20260430T00Z_MSC_GDPS_WindSpeed_IsbL-0950_LatLon0.15_PT057H.grib2 2026-04-30 04:12 1.8M
20260430T00Z_MSC_GDPS_WindSpeed_IsbL-0970_LatLon0.15_PT057H.grib2 2026-04-30 04:12 1.8M
20260430T00Z_MSC_GDPS_WindSpeed_IsbL-0985_LatLon0.15_PT057H.grib2 2026-04-30 04:12 1.9M
20260430T00Z_MSC_GDPS_WindSpeed_IsbL-1000_LatLon0.15_PT057H.grib2 2026-04-30 04:12 1.9M
20260430T00Z_MSC_GDPS_WindSpeed_IsbL-1015_LatLon0.15_PT057H.grib2 2026-04-30 04:12 1.8M
20260430T00Z_MSC_GDPS_WindU_AGL-10m_LatLon0.15_PT057H.grib2 2026-04-30 04:12 1.3M
20260430T00Z_MSC_GDPS_WindU_AGL-120m_LatLon0.15_PT057H.grib2 2026-04-30 04:12 1.0M
20260430T00Z_MSC_GDPS_WindU_AGL-40m_LatLon0.15_PT057H.grib2 2026-04-30 04:12 968K
20260430T00Z_MSC_GDPS_WindU_AGL-80m_LatLon0.15_PT057H.grib2 2026-04-30 04:12 1.0M
20260430T00Z_MSC_GDPS_WindU_IsbL-0001_LatLon0.15_PT057H.grib2 2026-04-30 04:12 498K
20260430T00Z_MSC_GDPS_WindU_IsbL-0005_LatLon0.15_PT057H.grib2 2026-04-30 04:12 690K
20260430T00Z_MSC_GDPS_WindU_IsbL-0010_LatLon0.15_PT057H.grib2 2026-04-30 04:12 700K
20260430T00Z_MSC_GDPS_WindU_IsbL-0020_LatLon0.15_PT057H.grib2 2026-04-30 04:12 733K
20260430T00Z_MSC_GDPS_WindU_IsbL-0030_LatLon0.15_PT057H.grib2 2026-04-30 04:12 736K
20260430T00Z_MSC_GDPS_WindU_IsbL-0050_LatLon0.15_PT057H.grib2 2026-04-30 04:12 765K
20260430T00Z_MSC_GDPS_WindU_IsbL-0100_LatLon0.15_PT057H.grib2 2026-04-30 04:12 922K
20260430T00Z_MSC_GDPS_WindU_IsbL-0150_LatLon0.15_PT057H.grib2 2026-04-30 04:12 1.0M
20260430T00Z_MSC_GDPS_WindU_IsbL-0175_LatLon0.15_PT057H.grib2 2026-04-30 04:12 813K
20260430T00Z_MSC_GDPS_WindU_IsbL-0200_LatLon0.15_PT057H.grib2 2026-04-30 04:12 842K
20260430T00Z_MSC_GDPS_WindU_IsbL-0225_LatLon0.15_PT057H.grib2 2026-04-30 04:12 851K
20260430T00Z_MSC_GDPS_WindU_IsbL-0250_LatLon0.15_PT057H.grib2 2026-04-30 04:12 853K
20260430T00Z_MSC_GDPS_WindU_IsbL-0275_LatLon0.15_PT057H.grib2 2026-04-30 04:12 881K
20260430T00Z_MSC_GDPS_WindU_IsbL-0300_LatLon0.15_PT057H.grib2 2026-04-30 04:12 871K
20260430T00Z_MSC_GDPS_WindU_IsbL-0350_LatLon0.15_PT057H.grib2 2026-04-30 04:12 884K
20260430T00Z_MSC_GDPS_WindU_IsbL-0400_LatLon0.15_PT057H.grib2 2026-04-30 04:12 1.1M
20260430T00Z_MSC_GDPS_WindU_IsbL-0450_LatLon0.15_PT057H.grib2 2026-04-30 04:12 1.1M
20260430T00Z_MSC_GDPS_WindU_IsbL-0500_LatLon0.15_PT057H.grib2 2026-04-30 04:12 1.1M
20260430T00Z_MSC_GDPS_WindU_IsbL-0550_LatLon0.15_PT057H.grib2 2026-04-30 04:12 1.1M
20260430T00Z_MSC_GDPS_WindU_IsbL-0600_LatLon0.15_PT057H.grib2 2026-04-30 04:12 1.1M
20260430T00Z_MSC_GDPS_WindU_IsbL-0650_LatLon0.15_PT057H.grib2 2026-04-30 04:12 1.2M
20260430T00Z_MSC_GDPS_WindU_IsbL-0700_LatLon0.15_PT057H.grib2 2026-04-30 04:12 1.2M
20260430T00Z_MSC_GDPS_WindU_IsbL-0750_LatLon0.15_PT057H.grib2 2026-04-30 04:12 1.3M
20260430T00Z_MSC_GDPS_WindU_IsbL-0800_LatLon0.15_PT057H.grib2 2026-04-30 04:12 1.4M
20260430T00Z_MSC_GDPS_WindU_IsbL-0850_LatLon0.15_PT057H.grib2 2026-04-30 04:12 1.4M
20260430T00Z_MSC_GDPS_WindU_IsbL-0875_LatLon0.15_PT057H.grib2 2026-04-30 04:12 1.5M
20260430T00Z_MSC_GDPS_WindU_IsbL-0900_LatLon0.15_PT057H.grib2 2026-04-30 04:12 1.5M
20260430T00Z_MSC_GDPS_WindU_IsbL-0925_LatLon0.15_PT057H.grib2 2026-04-30 04:12 1.5M
20260430T00Z_MSC_GDPS_WindU_IsbL-0950_LatLon0.15_PT057H.grib2 2026-04-30 04:12 1.4M
20260430T00Z_MSC_GDPS_WindU_IsbL-0970_LatLon0.15_PT057H.grib2 2026-04-30 04:12 1.4M
20260430T00Z_MSC_GDPS_WindU_IsbL-0985_LatLon0.15_PT057H.grib2 2026-04-30 04:12 1.4M
20260430T00Z_MSC_GDPS_WindU_IsbL-1000_LatLon0.15_PT057H.grib2 2026-04-30 04:12 1.4M
20260430T00Z_MSC_GDPS_WindU_IsbL-1015_LatLon0.15_PT057H.grib2 2026-04-30 04:12 1.3M
20260430T00Z_MSC_GDPS_WindV_AGL-10m_LatLon0.15_PT057H.grib2 2026-04-30 04:12 1.3M
20260430T00Z_MSC_GDPS_WindV_AGL-120m_LatLon0.15_PT057H.grib2 2026-04-30 04:12 1.0M
20260430T00Z_MSC_GDPS_WindV_AGL-40m_LatLon0.15_PT057H.grib2 2026-04-30 04:12 1.0M
20260430T00Z_MSC_GDPS_WindV_AGL-80m_LatLon0.15_PT057H.grib2 2026-04-30 04:12 1.0M
20260430T00Z_MSC_GDPS_WindV_IsbL-0001_LatLon0.15_PT057H.grib2 2026-04-30 04:12 776K
20260430T00Z_MSC_GDPS_WindV_IsbL-0005_LatLon0.15_PT057H.grib2 2026-04-30 04:12 763K
20260430T00Z_MSC_GDPS_WindV_IsbL-0010_LatLon0.15_PT057H.grib2 2026-04-30 04:12 794K
20260430T00Z_MSC_GDPS_WindV_IsbL-0020_LatLon0.15_PT057H.grib2 2026-04-30 04:12 851K
20260430T00Z_MSC_GDPS_WindV_IsbL-0030_LatLon0.15_PT057H.grib2 2026-04-30 04:12 850K
20260430T00Z_MSC_GDPS_WindV_IsbL-0050_LatLon0.15_PT057H.grib2 2026-04-30 04:12 899K
20260430T00Z_MSC_GDPS_WindV_IsbL-0100_LatLon0.15_PT057H.grib2 2026-04-30 04:12 1.1M
20260430T00Z_MSC_GDPS_WindV_IsbL-0150_LatLon0.15_PT057H.grib2 2026-04-30 04:12 1.0M
20260430T00Z_MSC_GDPS_WindV_IsbL-0175_LatLon0.15_PT057H.grib2 2026-04-30 04:12 1.0M
20260430T00Z_MSC_GDPS_WindV_IsbL-0200_LatLon0.15_PT057H.grib2 2026-04-30 04:12 839K
20260430T00Z_MSC_GDPS_WindV_IsbL-0225_LatLon0.15_PT057H.grib2 2026-04-30 04:12 846K
20260430T00Z_MSC_GDPS_WindV_IsbL-0250_LatLon0.15_PT057H.grib2 2026-04-30 04:12 845K
20260430T00Z_MSC_GDPS_WindV_IsbL-0275_LatLon0.15_PT057H.grib2 2026-04-30 04:12 872K
20260430T00Z_MSC_GDPS_WindV_IsbL-0300_LatLon0.15_PT057H.grib2 2026-04-30 04:12 920K
20260430T00Z_MSC_GDPS_WindV_IsbL-0350_LatLon0.15_PT057H.grib2 2026-04-30 04:12 873K
20260430T00Z_MSC_GDPS_WindV_IsbL-0400_LatLon0.15_PT057H.grib2 2026-04-30 04:12 876K
20260430T00Z_MSC_GDPS_WindV_IsbL-0450_LatLon0.15_PT057H.grib2 2026-04-30 04:12 1.1M
20260430T00Z_MSC_GDPS_WindV_IsbL-0500_LatLon0.15_PT057H.grib2 2026-04-30 04:12 1.1M
20260430T00Z_MSC_GDPS_WindV_IsbL-0550_LatLon0.15_PT057H.grib2 2026-04-30 04:12 1.1M
20260430T00Z_MSC_GDPS_WindV_IsbL-0600_LatLon0.15_PT057H.grib2 2026-04-30 04:12 1.1M
20260430T00Z_MSC_GDPS_WindV_IsbL-0650_LatLon0.15_PT057H.grib2 2026-04-30 04:12 1.2M
20260430T00Z_MSC_GDPS_WindV_IsbL-0700_LatLon0.15_PT057H.grib2 2026-04-30 04:12 1.2M
20260430T00Z_MSC_GDPS_WindV_IsbL-0750_LatLon0.15_PT057H.grib2 2026-04-30 04:12 1.3M
20260430T00Z_MSC_GDPS_WindV_IsbL-0800_LatLon0.15_PT057H.grib2 2026-04-30 04:12 1.3M
20260430T00Z_MSC_GDPS_WindV_IsbL-0850_LatLon0.15_PT057H.grib2 2026-04-30 04:12 1.4M
20260430T00Z_MSC_GDPS_WindV_IsbL-0875_LatLon0.15_PT057H.grib2 2026-04-30 04:12 1.4M
20260430T00Z_MSC_GDPS_WindV_IsbL-0900_LatLon0.15_PT057H.grib2 2026-04-30 04:12 1.5M
20260430T00Z_MSC_GDPS_WindV_IsbL-0925_LatLon0.15_PT057H.grib2 2026-04-30 04:12 1.4M
20260430T00Z_MSC_GDPS_WindV_IsbL-0950_LatLon0.15_PT057H.grib2 2026-04-30 04:12 1.4M
20260430T00Z_MSC_GDPS_WindV_IsbL-0970_LatLon0.15_PT057H.grib2 2026-04-30 04:12 1.4M
20260430T00Z_MSC_GDPS_WindV_IsbL-0985_LatLon0.15_PT057H.grib2 2026-04-30 04:12 1.4M
20260430T00Z_MSC_GDPS_WindV_IsbL-1000_LatLon0.15_PT057H.grib2 2026-04-30 04:12 1.4M
20260430T00Z_MSC_GDPS_WindV_IsbL-1015_LatLon0.15_PT057H.grib2 2026-04-30 04:12 1.3M